Location: Balsareny
(41.8670°N, 1.8830°E)
Time: 00:36:24
(UTC+02:00)

X-37B - Pass Details

Date: 29 June 2021
Orbit: 383 x 392 km, 45.0° (Epoch: 01 July)

Event Time Altitude Azimuth Distance (km) Brightness Sun altitude
Rises 00:02:50 0° 286° (WNW) 2,256 5.1 -19.8°
Reaches altitude 10° 00:04:56 10° 292° (WNW) 1,402 4.1 -20.0°
Maximum altitude 00:08:01 53° 10° (N) 479 1.2 -20.3°
Enters shadow 00:08:22 49° 37° (NE) 501 1.2 -20.3°
